Regional Weather Roundup
Issued by NWS Jackson, KY

Home | Current Version | Previous Version | Graphics & Text | Print | Product List | Glossary Off
Versions: 1 2 3 4 5 6 7 8 9 10 11 12 13 14 15 16 17 18 19 20 21 22 23 24 25 26 27

850
ASUS43 KJKL 221510
RWRJKL

EAST KENTUCKY HOURLY WEATHER ROUNDUP
NATIONAL WEATHER SERVICE JACKSON KY
1100 AM EDT FRI MAY 22 2015

NOTE: "FAIR" INDICATES FEW OR NO CLOUDS BELOW 12,000 FEET WITH
NO SIGNIFICANT WEATHER AND/OR OBSTRUCTIONS TO VISIBILITY.

* THESE REPORTS ARE NOT UNDER NWS QUALITY CONTROL AND MAY NOT
  REPORT WEATHER SUCH AS PRECIPITATION AND FOG.

KYZ079-080-083-085-087-088-110-112-115-119-120-221600
...EASTERN KENTUCKY...

CITY           SKY/WX    TMP DP  RH WIND       PRES   REMARKS
JACKSON        MOSUNNY   57  50  77 VRB3      30.29S
LONDON         SUNNY     60  41  49 CALM      30.30S
SOMERSET*      SUNNY     59  45  58 W7        30.33R
MONTICELLO*    SUNNY     61  50  67 CALM      30.34R
MIDDLESBORO*   MOSUNNY   59  45  60 E6        30.31S
HARLAN APT*    MOSUNNY   57  45  62 CALM      30.30S
BIG SANDY*     SUNNY     56  47  72 W3        30.29R
MOREHEAD APT*  SUNNY     61  46  59 VRB5      30.29S
$$

KYZ035-036-041-042-044-050-067-078-099-221600
...CENTRAL KENTUCKY...

CITY           SKY/WX    TMP DP  RH WIND       PRES   REMARKS
MT STERLING*   SUNNY     61  46  59 NW9       30.29S
DANVILLE*      SUNNY     61  45  55 N5        30.31R
RICHMOND*      SUNNY     59  46  63 W8        30.29R
LEXINGTON      SUNNY     62  47  57 SW8       30.27F
FRANKFORT      SUNNY     62  46  55 SW9       30.26S
$$

KYZ091>093-OHZ055-061-077-WVZ005-015-034-035-042-221600
...SOUTHERN OHIO/WEST VIRGINIA...

CITY           SKY/WX    TMP DP  RH WIND       PRES   REMARKS
COLUMBUS       MOSUNNY   61  45  55 CALM      30.18R
DAYTON         MOSUNNY   66  48  52 SW9       30.19S
WILMINGTON     SUNNY     63  46  54 W12       30.21R
HUNTINGTON     SUNNY     61  47  59 S7        30.25R
CHARLESTON     MOSUNNY   59  48  67 SW7       30.25R
PINEVILLE*     MOSUNNY   56  46  70 MISG      30.33R
BECKLEY        SUNNY     54  42  64 NW13      30.26S
BLUEFIELD      PTSUNNY   51  41  68 W9        30.29R
$$

VAZ002-007-008-TNZ017-027-036-066-071-221600
...SOUTHWEST VIRGINIA/EAST TENNESSEE...

CITY           SKY/WX    TMP DP  RH WIND       PRES   REMARKS
WISE*          MOSUNNY   54  41  62 W3        30.30S
JONESVILLE*    SUNNY     59  45  58 N5        30.32S
ABINGDON*      MOSUNNY   58  41  53 E5        30.29R
BRISTOL        MOSUNNY   60  40  47 N7        30.29R
KNOXVILLE      MOSUNNY   62  42  47 NE14      30.28R
OAK RIDGE      SUNNY     62  45  53 NE6       30.31R
CROSSVILLE     SUNNY     57  43  59 NE8       30.31R
NASHVILLE      PTSUNNY   63  46  54 NW5       30.32S
$$

...KEY TO REMARKS...
VSB - VISIBILITY IN MILES
WCI - WIND CHILL INDEX
HX  - HEAT INDEX

$$



USA.gov is the U.S. government's official web portal to all federal, state and local government web resources and services.